TimeCST,TemperatureF,Dew PointF,Humidity,Sea Level PressureIn,VisibilityMPH,Wind Direction,Wind SpeedMPH,Gust SpeedMPH,PrecipitationIn,Events,Conditions,WindDirDegrees,DateUTC
12:15 AM,14.4,7.5,74,30.18,10.0,NE,4.6,-,N/A,,Clear,50,2013-02-17 06:15:00
12:35 AM,14.0,6.1,71,30.19,10.0,Calm,Calm,-,N/A,,Clear,0,2013-02-17 06:35:00
12:55 AM,13.1,5.9,73,30.19,10.0,Calm,Calm,-,N/A,,Clear,0,2013-02-17 06:55:00
1:15 AM,12.7,6.3,75,30.19,10.0,Calm,Calm,-,N/A,,Clear,0,2013-02-17 07:15:00
1:35 AM,11.3,6.6,81,30.19,10.0,Calm,Calm,-,N/A,,Clear,0,2013-02-17 07:35:00
1:55 AM,10.8,6.8,84,30.19,10.0,Calm,Calm,-,N/A,,Clear,0,2013-02-17 07:55:00
2:15 AM,10.2,6.6,85,30.20,10.0,Calm,Calm,-,N/A,,Clear,0,2013-02-17 08:15:00
2:35 AM,10.0,6.3,85,30.19,10.0,Calm,Calm,-,N/A,,Clear,0,2013-02-17 08:35:00
2:55 AM,10.4,6.8,85,30.19,10.0,Calm,Calm,-,N/A,,Clear,0,2013-02-17 08:55:00
3:15 AM,9.5,5.7,85,30.19,10.0,Calm,Calm,-,N/A,,Clear,0,2013-02-17 09:15:00
3:35 AM,9.9,6.3,85,30.19,10.0,Calm,Calm,-,N/A,,Clear,0,2013-02-17 09:35:00
3:55 AM,11.5,7.0,82,30.19,10.0,Calm,Calm,-,N/A,,Clear,0,2013-02-17 09:55:00
4:15 AM,11.1,6.1,80,30.20,10.0,Calm,Calm,-,N/A,,Clear,0,2013-02-17 10:15:00
4:35 AM,10.4,6.1,83,30.20,10.0,Calm,Calm,-,N/A,,Clear,0,2013-02-17 10:35:00
4:55 AM,10.4,5.9,82,30.20,10.0,Calm,Calm,-,N/A,,Clear,0,2013-02-17 10:55:00
5:15 AM,10.0,5.5,82,30.20,10.0,Calm,Calm,-,N/A,,Clear,0,2013-02-17 11:15:00
5:35 AM,10.2,5.7,82,30.21,10.0,Calm,Calm,-,N/A,,Clear,0,2013-02-17 11:35:00
5:55 AM,10.8,5.7,80,30.21,10.0,Calm,Calm,-,N/A,,Clear,0,2013-02-17 11:55:00
6:15 AM,10.9,5.7,79,30.21,10.0,Calm,Calm,-,N/A,,Clear,0,2013-02-17 12:15:00
6:35 AM,10.8,5.7,80,30.21,10.0,Calm,Calm,-,N/A,,Clear,0,2013-02-17 12:35:00
6:55 AM,11.1,5.7,79,30.21,10.0,Calm,Calm,-,N/A,,Clear,0,2013-02-17 12:55:00
7:15 AM,11.3,5.9,79,30.21,10.0,Calm,Calm,-,N/A,,Clear,0,2013-02-17 13:15:00
7:35 AM,12.4,6.8,78,30.21,10.0,Calm,Calm,-,N/A,,Clear,0,2013-02-17 13:35:00
7:55 AM,14.9,7.2,71,30.21,10.0,SSE,5.8,-,N/A,,Clear,160,2013-02-17 13:55:00
8:15 AM,16.5,7.2,67,30.20,10.0,SE,5.8,-,N/A,,Clear,140,2013-02-17 14:15:00
8:35 AM,17.4,6.4,62,30.20,10.0,SE,8.1,-,N/A,,Clear,130,2013-02-17 14:35:00
8:55 AM,19.2,8.1,62,30.20,10.0,SE,8.1,-,N/A,,Clear,130,2013-02-17 14:55:00
9:15 AM,20.1,8.1,60,30.21,10.0,SE,8.1,-,N/A,,Clear,140,2013-02-17 15:15:00
9:35 AM,21.2,8.4,58,30.21,10.0,ESE,8.1,-,N/A,,Clear,120,2013-02-17 15:35:00
9:55 AM,22.3,9.5,58,30.20,10.0,ESE,9.2,-,N/A,,Clear,120,2013-02-17 15:55:00
10:15 AM,23.5,10.2,57,30.20,10.0,ESE,9.2,-,N/A,,Clear,110,2013-02-17 16:15:00
10:35 AM,25.9,11.1,54,30.21,10.0,SE,8.1,-,N/A,,Clear,140,2013-02-17 16:35:00
10:55 AM,25.5,11.1,54,30.20,10.0,SE,6.9,-,N/A,,Clear,140,2013-02-17 16:55:00
11:15 AM,26.8,11.3,52,30.20,10.0,SE,8.1,-,N/A,,Clear,130,2013-02-17 17:15:00
11:35 AM,27.9,11.7,51,30.19,10.0,SSE,6.9,-,N/A,,Clear,160,2013-02-17 17:35:00
11:55 AM,28.9,12.6,50,30.18,10.0,East,5.8,-,N/A,,Clear,100,2013-02-17 17:55:00
12:15 PM,30.4,14.0,51,30.17,10.0,SE,8.1,-,N/A,,Clear,140,2013-02-17 18:15:00
12:55 PM,31.5,15.3,51,30.14,10.0,ESE,6.9,-,N/A,,Clear,120,2013-02-17 18:55:00
1:15 PM,32.7,16.2,51,30.13,10.0,ESE,9.2,-,N/A,,Clear,110,2013-02-17 19:15:00
1:35 PM,33.1,16.2,50,30.12,10.0,SSE,10.4,16.1,N/A,,Clear,150,2013-02-17 19:35:00
1:55 PM,34.0,16.9,50,30.11,10.0,SE,8.1,-,N/A,,Clear,140,2013-02-17 19:55:00
2:15 PM,34.2,17.1,50,30.11,10.0,South,9.2,-,N/A,,Clear,170,2013-02-17 20:15:00
2:35 PM,34.3,17.2,50,30.09,10.0,SE,13.8,-,N/A,,Clear,130,2013-02-17 20:35:00
2:55 PM,35.8,17.6,48,30.08,10.0,SE,10.4,-,N/A,,Clear,130,2013-02-17 20:55:00
3:15 PM,35.2,17.6,49,30.08,10.0,SSE,9.2,-,N/A,,Clear,150,2013-02-17 21:15:00
3:35 PM,35.6,18.1,49,30.07,10.0,SE,12.7,-,N/A,,Clear,140,2013-02-17 21:35:00
3:55 PM,35.6,18.1,49,30.06,10.0,SE,11.5,-,N/A,,Clear,140,2013-02-17 21:55:00
4:15 PM,35.2,18.5,51,30.06,10.0,SE,15.0,-,N/A,,Clear,130,2013-02-17 22:15:00
4:35 PM,34.7,18.1,51,30.05,10.0,SE,12.7,19.6,N/A,,Clear,130,2013-02-17 22:35:00
4:55 PM,34.3,18.3,52,30.05,10.0,SE,13.8,18.4,N/A,,Clear,130,2013-02-17 22:55:00
5:15 PM,33.6,19.2,56,30.04,10.0,ESE,9.2,-,N/A,,Clear,120,2013-02-17 23:15:00
5:35 PM,32.7,19.9,59,30.03,10.0,ESE,11.5,-,N/A,,Clear,110,2013-02-17 23:35:00
5:55 PM,32.0,21.2,64,30.03,10.0,ESE,8.1,-,N/A,,Clear,120,2013-02-17 23:55:00
6:15 PM,31.6,20.8,64,30.03,10.0,ESE,9.2,-,N/A,,Clear,120,2013-02-18 00:15:00
6:35 PM,31.6,20.8,64,30.03,10.0,ESE,6.9,-,N/A,,Clear,120,2013-02-18 00:35:00
6:55 PM,31.6,21.0,65,30.02,10.0,ESE,12.7,-,N/A,,Clear,110,2013-02-18 00:55:00
7:15 PM,31.5,21.0,65,30.01,10.0,ESE,9.2,-,N/A,,Clear,120,2013-02-18 01:15:00
7:35 PM,31.6,20.8,64,30.01,10.0,ESE,11.5,-,N/A,,Clear,120,2013-02-18 01:35:00
7:55 PM,31.1,21.0,66,30.00,10.0,ESE,11.5,-,N/A,,Clear,120,2013-02-18 01:55:00
8:15 PM,31.1,21.2,67,30.00,10.0,SE,11.5,-,N/A,,Clear,130,2013-02-18 02:15:00
8:35 PM,31.3,21.2,66,30.01,10.0,SE,11.5,-,N/A,,Clear,140,2013-02-18 02:35:00
8:55 PM,31.1,21.2,67,30.01,10.0,SE,10.4,-,N/A,,Clear,130,2013-02-18 02:55:00
9:15 PM,31.3,21.6,67,29.99,10.0,SE,10.4,-,N/A,,Clear,130,2013-02-18 03:15:00
9:35 PM,31.6,21.6,66,29.98,10.0,SE,12.7,18.4,N/A,,Clear,140,2013-02-18 03:35:00
9:55 PM,32.0,21.2,64,29.98,10.0,SE,15.0,19.6,N/A,,Clear,130,2013-02-18 03:55:00
10:15 PM,32.0,21.2,64,29.97,10.0,SE,15.0,18.4,N/A,,Clear,130,2013-02-18 04:15:00
10:35 PM,32.0,21.0,64,29.95,10.0,SE,13.8,23.0,N/A,,Clear,130,2013-02-18 04:35:00
10:55 PM,32.2,21.0,63,29.94,10.0,SE,16.1,-,N/A,,Clear,130,2013-02-18 04:55:00
11:15 PM,32.4,21.2,63,29.94,10.0,SE,17.3,20.7,N/A,,Clear,140,2013-02-18 05:15:00
11:35 PM,32.2,21.2,64,29.93,10.0,SE,11.5,20.7,N/A,,Clear,140,2013-02-18 05:35:00
11:55 PM,32.0,21.2,64,29.91,10.0,SE,15.0,23.0,N/A,,Clear,130,2013-02-18 05:55:00